Regional Weather Roundup
Issued by NWS

Home | Current Version | Previous Version | Text Only | Print | Product List | Glossary On
Versions: 1 2 3 4 5 6 7 8 9 10 11 12 13 14 15 16 17 18 19 20 21 22 23 24 25 26 27 28 29 30 31 32 33 34 35 36 37 38 39 40 41 42 43 44 45 46 47 48 49 50
000
ASUS43 KOAX 251610
RWRNE

WEATHER ROUNDUP FOR NEBRASKA
NATIONAL WEATHER SERVICE OMAHA NE
1100 AM CDT MON JUL 25 2016

NOTES: SATELLITE DATA IS BEING USED TO AUGMENT CLOUD COVER ABOVE
       12000 FEET.
       "FAIR" INDICATES FEW OR NO CLOUDS BELOW 12,000 FEET WITH NO
       SIGNIFICANT WEATHER AND/OR OBSTRUCTIONS TO VISIBILITY.

  * THESE STATIONS DO NOT REPORT WEATHER SUCH AS RAIN...SNOW OR FOG.

NEZ001>004-019>022-054>056-251700-
NEBRASKA PANHANDLE

CITY           SKY/WX    TMP DP  RH WIND       PRES   REMARKS
SCOTTSBLUFF    SUNNY     78  55  44 S13G22    30.16F
ALLIANCE       SUNNY     76  57  51 S15G23    30.18F
CHADRON        SUNNY     81  53  37 S17       30.12F
KIMBALL        SUNNY     72  58  61 S17       30.21F
SIDNEY         SUNNY     76  56  49 SE22G29   30.21F
$$

NEZ057>060-069>072-079>082-251700-
SOUTHWEST NEBRASKA

CITY           SKY/WX    TMP DP  RH WIND       PRES   REMARKS
NORTH PLATTE   SUNNY     76  65  68 SE9       30.19S
IMPERIAL       SUNNY     76  60  57 SE12      30.19S
LEXINGTON      SUNNY     77  64  63 SE14      30.18S
MCCOOK         SUNNY     80  62  54 SE14      30.18S
OGALLALA       SUNNY     78  59  52 S12       30.19F
$$

NEZ005>010-023>029-035>040-094-251700-
NORTH CENTRAL NEBRASKA

CITY           SKY/WX    TMP DP  RH WIND       PRES   REMARKS
VALENTINE      SUNNY     82  55  39 S20       30.15F
AINSWORTH      SUNNY     80  47  31 S17G23    30.17F
BROKEN BOW     SUNNY     76  63  64 SE10      30.18F
O`NEILL        SUNNY     82  53  36 S15       30.17S
ORD            SUNNY     77  55  46 SE13      30.17F
THEDFORD       SUNNY     80  57  45 SE17      30.20S
$$

NEZ041-046>049-061>064-073>077-083>087-251700-
SOUTH CENTRAL NEBRASKA

CITY           SKY/WX    TMP DP  RH WIND       PRES   REMARKS
GRAND ISLAND   CLOUDY    77  62  59 SE9       30.17F
AURORA         MOSUNNY   77  66  68 S7        30.17S
HASTINGS       MOSUNNY   77  64  64 SE12      30.18S
HEBRON         CLOUDY    76  64  67 E8        30.14F
HOLDREGE       CLOUDY    76  65  69 E13       30.17S
KEARNEY *      SUNNY     77  64  65 E12       30.18S
YORK           SUNNY     75  66  73 SE7       30.17S
$$

NEZ011>018-030>034-042>045-251700-
NORTHEAST NEBRASKA

CITY           SKY/WX    TMP DP  RH WIND       PRES   REMARKS
NORFOLK        SUNNY     79  62  56 S12       30.16S
ALBION         SUNNY     75  60  60 S10       30.18S
BLAIR          SUNNY     79  65  62 CALM      30.15S
FREMONT        CLOUDY    78  64  61 SW3       30.16S
TEKAMAH        CLOUDY    80  64  58 SE5       30.14R
WAYNE          SUNNY     78  66  65 S8        30.16S
$$

NEZ050>053-065>068-078-088>093-251700-
SOUTHEAST NEBRASKA

CITY           SKY/WX    TMP DP  RH WIND       PRES   REMARKS
LINCOLN        PTSUNNY   78  64  61 SE5       30.16S
OMAHA EPPLEY   MOSUNNY   80  65  59 S7        30.13S
BEATRICE       MOSUNNY   78  63  59 SE6       30.14F
FALLS CITY     CLOUDY    77  67  71 E8        30.12R
NEBRASKA CITY  CLOUDY    76  65  68 E3        30.15R
PLATTSMOUTH    MOSUNNY   76  65  67 SE3       30.15S
$$

NEZ044-045-051>053-067-251700-
OMAHA AREA

CITY           SKY/WX    TMP DP  RH WIND       PRES   REMARKS
OMAHA EPPLEY   MOSUNNY   80  65  59 S7        30.13S
BLAIR          SUNNY     79  65  62 CALM      30.15S
FREMONT        CLOUDY    78  64  61 SW3       30.16S
MILLARD        SUNNY     79  66  63 S5        30.14S
OFFUTT AFB     MOSUNNY   78  66  65 SE7       30.13F
PLATTSMOUTH    MOSUNNY   76  65  67 SE3       30.15S
WAHOO          FAIR      77  66  68 S6        30.15F
$$



USA.gov is the U.S. government's official web portal to all federal, state and local government web resources and services.